Погода в Красовке

Россия / Омская область     54°55′53″N   75°10′08″E
темп.,
°C
ветер,
м/с
пор.,
м/с
влажн.,
%
обл.,
%
осадки,
мм/ч
давл.,
гПа
погр.,
м
8 мая, сб
сб800:00+11з34515 0.0 102056
03:00+9з34550 0.0 102150
06:00+9з33585 0.0 102134
09:00+16зюз34425 0.0 1021314
12:00+20зюз45315 0.0 10201473
15:00+22з45275 0.0 10192012
18:00+22сз34270 0.0 10181971
21:00+17с224119 0.0 101811
9 мая, вс
вс900:00+16ююв00423 0.0 101811
03:00+13св224947 0.0 101814
06:00+12всв346126 0.0 101853
09:00+16в5754100 0.0 1019474
12:00+19всв6740100 0.0 10191024
15:00+20всв673699 0.0 10181506
18:00+19всв6637100 0.0 10181555
21:00+14всв61243100 0.0 1019451
10 мая, пн
пн1000:00+12всв6134497 0.0 1019501
03:00+10всв61350100 0.0 1019443
06:00+9всв61355100 0.0 1019555
09:00+11всв71146100 0.0 1020966
12:00+14всв7838100 0.0 10201654
15:00+16всв783450 0.0 10191994
18:00+15св773467 0.0 10192219
21:00+12св36475 0.0 1020111
11 мая, вт
вт1100:00+9ссв365536 0.0 1020102
03:00+8св36625 0.0 1020113
06:00+7ссв376834 0.0 1021167
09:00+12ссв464870 0.0 1021720
12:00+14ссв4539100 0.0 10202226
15:00+14с5440100 0.0 10201969
18:00+14с3437100 0.0 10202042
21:00+11сз23515 0.0 102131
12 мая, ср
ср1200:00+9сз22564 0.0 102011
03:00+8сз11563 0.0 102010
06:00+8сз115954 0.0 102010
09:00+13юв114380 0.0 1020417
12:00+17юв113396 0.0 10191696
15:00+17ссв113395 0.0 10181769
18:00+18св123289 0.0 10182129
21:00+14зюз114398 0.0 101811